Home   Weather   Fort Bragg   Past weeks

Flag for USA Past Weather in Fort Bragg, California, USA — Yesterday and Last 2 Weeks

Now
55 °F

Light rain. Overcast.


Feels Like: 50 °F
Forecast: 47 / 54 °F
Wind: 20 mph from Southwest

Location: Ukiah Municipal

Current Time: Feb 20, 2017 at 11:33:26 pm

Latest Report: Feb 20, 2017 at 10:56 pm


Visibility: 8 mi

Pressure: 29.84 "Hg

Humidity: 74%

Dew Point: 47 °F

Location of Fort BraggLocation

Past Weather in Fort Bragg — Graph

°F

Fort Bragg Temperature Yesterday

Maximum temperature yesterday: 52 °F (at 8:56 pm)
Minimum temperature yesterday: 44 °F (at 12:56 am)
Average temperature yesterday: 48 °F

High & Low Weather Summary for the Past Weeks

 TemperatureHumidityPressure
High72 °F (Feb 14, 3:56 pm)100% (Feb 8, 4:03 am)30.28 "Hg (Feb 8, 4:03 am)
Low35 °F (Feb 12, 5:56 am)32% (Feb 12, 2:56 pm)29.14 "Hg (Feb 17, 2:56 pm)
Average53 °F84%29.87 "Hg
* Reported Feb 5 9:56 pm — Feb 20 9:56 pm, Fort Bragg, Weather by CustomWeather, © 2017

Note: Actual official high and low records may vary slightly from our data, if they occured in-between our weather recording intervals... More about our weather records

Advertising

Fort Bragg Weather History for the Previous 24 Hours

Scroll right to see more
 ConditionsComfort  
Time TempWeatherWind HumidityBarometerVisibility
9:56 pm
Mon, Feb 20
55 °FLight rain. Overcast.13 mph77%29.80 "Hg9 mi
8:56 pm53 °FRain. Fog.7 mph89%29.79 "Hg3 mi
7:56 pm50 °FLight rain. Mostly cloudy.7 mph96%29.79 "Hg7 mi
6:56 pm54 °FRain. Overcast.13 mph83%29.78 "Hg4 mi
6:17 pm53 °FHeavy rain. Fog.7 mph96%29.77 "Hg3 mi
5:56 pm53 °FRain. Fog.10 mph93%29.76 "Hg4 mi
4:56 pm53 °FLight rain. Mostly cloudy.13 mph93%29.76 "Hg10 mi
3:56 pm53 °FRain. Fog.10 mph93%29.78 "Hg4 mi
3:22 pm53 °FRain. Fog.9 mph93%29.79 "Hg4 mi
2:56 pm53 °FRain. Fog.13 mph93%29.78 "Hg4 mi
1:56 pm53 °FRain. Fog.15 mph93%29.77 "Hg4 mi
12:56 pm53 °FRain. Fog.10 mph93%29.81 "Hg3 mi
11:56 am53 °FRain. Fog.13 mph93%29.84 "Hg5 mi
11:21 am53 °FRain. Fog.12 mph93%29.84 "Hg6 mi
10:56 am54 °FLight rain. Mostly cloudy.8 mph90%29.84 "Hg10 mi
10:30 am54 °FRain. Fog.6 mph90%29.87 "Hg2 mi
9:56 am53 °FLight rain. Fog.9 mph96%29.80 "Hg6 mi
9:22 am53 °FHeavy rain. Fog.6 mph96%29.84 "Hg2 mi
8:24 am53 °FHeavy rain. Fog.3 mph96%29.83 "Hg2 mi
7:56 am53 °FLight rain. Fog.3 mph96%29.80 "Hg5 mi
6:56 am53 °FRain. Fog.No wind96%29.79 "Hg5 mi
6:21 am54 °FLight rain. Mostly cloudy.3 mph93%29.80 "Hg7 mi
5:56 am56 °FLight rain. Mostly cloudy.6 mph84%29.78 "Hg8 mi
4:56 am56 °FLight rain. Mostly cloudy.15 mph84%29.74 "Hg7 mi
4:17 am57 °FLight rain. Overcast.8 mph87%29.79 "Hg10 mi
3:33 am53 °FLight rain. Fog.13 mph93%29.75 "Hg4 mi
2:56 am54 °FMostly cloudy.13 mph90%29.73 "Hg10 mi
1:56 am53 °FLight rain. Overcast.14 mph89%29.73 "Hg10 mi
1:17 am53 °FLight rain. Mostly cloudy.12 mph89%29.77 "Hg10 mi
12:56 am53 °FMostly cloudy.10 mph89%29.78 "Hg10 mi
11:56 pm
Sun, Feb 19
52 °FLight rain. Mostly cloudy.9 mph89%29.78 "Hg10 mi
11:11 pm52 °FLight rain. Mostly cloudy.13 mph89%29.77 "Hg9 mi
Weather by CustomWeather, © 2017

See weather overviewHow to use our weather pages